User: anonymous   Login
Location: Phoenix
(33.4480°N, 112.0730°W)
Time: 10:09:14
(UTC-07:00)
Language:

Hubble Space Telescope - Orbit

View from above orbital plane
View from above orbital plane
View from above satellite
View from above satellite

Ground track
Ground track

The orbit data is extracted from the following two-line orbital elements,

1 20580U 90037B   16041.40581657  .00002115  00000-0  12229-3 0  9990
2 20580  28.4710  22.4349 0002591 274.9043 218.1124 15.08136994215800
Epoch (UTC): 10 February 2016 09:44:22
Eccentricity: 0.0002591
inclination: 28.4710°
perigee height: 540 km
apogee height: 543 km
right ascension of ascending node: 22.4349°
argument of perigee: 274.9043°
revolutions per day: 15.08136994
mean anomaly at epoch: 218.1124°
orbit number at epoch: 21580

The dashed part of the orbit path shows where the satellite is in the earth's shadow,  

DLR